Location: Dallas(GA)
(33.9240°N, 84.8410°W)
Time: 21:34:37
(UTC-04:00)

N. Korean satellite - Pass Details

Date: 04 October 2020
Orbit: 453 x 505 km, 97.2° (Epoch: 25 October)

Event Time Altitude Azimuth Distance (km) Brightness Sun altitude
Rises 06:50:24 0° 17° (NNE) 2,538 10.5 -10.4°
Reaches altitude 10° 06:52:32 10° 23° (NNE) 1,646 9.6 -9.9°
Maximum altitude 06:55:58 48° 99° (E) 619 7.6 -9.2°
Drops below altitude 10° 06:59:19 10° 175° (S) 1,606 9.3 -8.5°
Sets 07:01:22 0° 181° (S) 2,469 10.2 -8.1°
